Regional Weather Roundup
Issued by NWS

Home | Current Version | Previous Version | Text Only | Print | Product List | Glossary Off
Versions: 1 2 3 4 5 6 7 8 9 10 11 12 13 14 15 16 17 18 19 20 21 22 23 24 25 26 27 28 29 30 31 32 33 34 35 36 37 38 39 40 41 42 43 44 45 46 47 48 49 50

799
ASUS43 KMPX 261110
RWRMN
WEATHER ROUNDUP FOR MINNESOTA
NATIONAL WEATHER SERVICE TWIN CITIES/CHANHASSEN MN
600 AM CDT TUE JUL 26 2016


NOTE: "FAIR" INDICATES FEW OR NO CLOUDS BELOW 12,000 FEET WITH NO
SIGNIFICANT WEATHER AND/OR OBSTRUCTIONS TO VISIBILITY. N/A MEANS
CURRENT SKY AND/OR WEATHER CONDITIONS ARE NOT AVAILABLE.

MNZ060>063-068>070-261200-
   Twin Cities Metro

CITY           SKY/WX    TMP DP  RH WIND       PRES   REMARKS
TWIN CITIES    PTCLDY    72  64  76 SW6       30.04S
ST PAUL        PTCLDY    68  65  90 SE6       30.04S
CRYSTAL        PTCLDY    69  64  84 S6        30.02S
BLAINE         CLEAR     72  66  83 S7        30.03S
LAKEVILLE      CLEAR     64  64 100 CALM      30.05S
EDEN PRAIRIE   PTCLDY    69  65  86 SW5       30.03S
LAKEVILLE      CLEAR     64  64 100 CALM      30.05S
SOUTH ST PAUL  PTCLDY    69  65  86 CALM      30.04S
LAKE ELMO      FAIR      64  63  94 CALM      30.05S
$$
MNZ001>005-007-008-013>017-022>024-027-028-261200-
   Northwest Minnesota

CITY           SKY/WX    TMP DP  RH WIND       PRES   REMARKS
BEMIDJI        CLEAR     63  63 100 CALM      29.96S
HALLOCK        CLEAR     61  59  94 CALM      29.94S
ROSEAU         CLEAR     61  55  82 CALM      29.96R
WARROAD        CLEAR     59  55  88 CALM      29.96S
THIEF RVR FALL CLEAR     67  64  90 NE7       29.96R
CROOKSTON      PTCLDY    66  64  94 E7        29.93S
FOSSTON        CLEAR     61  59  94 CALM      29.95F
DETROIT LAKES  CLOUDY    72  63  73 SW8       29.97S
MOORHEAD       HVY RAIN  68  64  88 S7        29.94R
PARK RAPIDS    CLOUDY    68  62  81 S3        29.97R
MAHNOMEN       FAIR      66  63  88 S7        29.94S
$$
MNZ006-009>011-018-025>026-261200-
   North Central Minnesota

CITY           SKY/WX    TMP DP  RH WIND       PRES   REMARKS
BAUDETTE       FOG       58  57  97 CALM      29.96R VSB 1/4
FLAG ISLAND    CLEAR     70  64  83 NW6       29.95S
INTL FALLS     CLEAR     59  58  96 CALM      29.96S
WASKISH        CLEAR     64  63  94 E3        29.96R
BIG FORK       MOCLDY    64  63  94 NE3       29.97S
LONGVILLE      PTCLDY    66  64  94 CALM      29.97S
ORR            PTCLDY    63  61  94 CALM      29.96F
COOK           MOCLDY    64  63  94 CALM      29.99F
WALKER         FAIR      67  63  86 S3        29.96S
$$
MNZ012-019>021-037-261200-
   Northeast Minnesota

CITY           SKY/WX    TMP DP  RH WIND       PRES   REMARKS
DULUTH         MOCLDY    70  64  81 SW8       30.00S
ELY            CLOUDY    64  63  94 SE5       30.01F
HIBBING        CLOUDY    62  61  96 CALM      30.00S
EVELETH        CLOUDY    65  63  91 E3        30.02R
DULUTH HARBOR  MOCLDY    72  66  83 SW10      29.98R
TWO HARBORS    PTCLDY    68  63  83 CALM      29.98R
SILVER BAY     CLOUDY    66  63  88 CALM      29.99R
GRAND MARAIS     N/A     61  59  93 CALM      29.97R
G MARAIS ARPRT LGT RAIN  63  57  82 CALM      30.04R
$$
MNZ029>031-032-039>041-046>048-054>057-064-261200-
   West Central Minnesota

CITY           SKY/WX    TMP DP  RH WIND       PRES   REMARKS
FERGUS FALLS   CLOUDY    70  63  78 S9        29.99S
MORRIS         CLEAR     64  63  94 S5        29.98R
ALEXANDRIA     CLOUDY    71  62  73 W10       30.02R
ELBOW LAKE     MOCLDY    66  64  92 SE3       30.01R
WADENA         MOCLDY    66  63  88 SW6       29.98R
GLENWOOD       CLEAR     68  63  83 SW13      30.01R
APPLETON       CLEAR     72  61  68 S8        29.98S
BENSON         CLEAR     66  61  82 SW8       29.99S
ORTONVILLE     CLEAR     72  61  68 S5        29.97S
MADISON        CLEAR     66  61  82 S5        29.99S
WILLMAR        FAIR      70  64  83 SW6       30.03S
$$
MNZ033>034-036-042>043-049>051-058-059-261200-
   Central Minnesota

CITY           SKY/WX    TMP DP  RH WIND       PRES   REMARKS
ST CLOUD       MOCLDY    67  66  97 S6        30.01S
SAUK CENTRE    FAIR      65  62  91 S6        30.00S
PAYNESVILLE    CLEAR     67  65  94 S6        30.02S
AITKIN         CLOUDY    73  61  64 S5        29.97S
PINE RIVER     CLEAR     64  63  94 CALM      30.01S
BRAINERD       PTCLDY    69  63  81 S8        29.99S
STAPLES        CLEAR     64  63  94 S5        29.99R
LONG PRAIRIE   FAIR      68  63  83 S6        30.01R
LITTLE FALLS   PTCLDY    66  61  82 S3        30.00S
LITCHFIELD     CLEAR     70  66  88 CALM      30.03S
BUFFALO        CLEAR     68  63  84 S3        30.04S
MAPLE LAKE     PTCLDY    68  66  92 S3        30.03S
HUTCHINSON     CLEAR     67  65  91 CALM      30.04S
$$
MNZ037-044-045-052-053-261200-
   East Central Minnesota

CITY           SKY/WX    TMP DP  RH WIND       PRES   REMARKS
PRINCETON      PTCLDY    70  64  83 S3        30.02S
MORA           CLEAR     64  64 100 CALM      30.03S
CAMBRIDGE      PTCLDY    72  61  68 S6        30.01R
RUSH CITY      PTCLDY    68  64  88 S5        30.02S
MOOSE LAKE     MOCLDY    64  63  94 CALM      29.99R
HINCKLEY       PTSUNNY   64  64 100 CALM      30.01S
CLOQUET        MOCLDY    68  63  83 S6        30.00S
MCGREGOR       CLOUDY    68  64  88 CALM      29.99S
$$
MNZ071>073-080-081-089-090-097-098-261200-
   Southwest Minnesota

CITY           SKY/WX    TMP DP  RH WIND       PRES   REMARKS
MONTEVIDEO     CLEAR     66  63  88 SW8       30.02S
GRANITE FALLS  CLEAR     65  64  96 S5        30.03S
CANBY          PTCLDY    74  61  64 SW12G20   30.00S
MARSHALL       CLEAR     73  64  73 SW16      30.01S
REDWOOD FALLS  CLEAR     67  62  84 S7        30.03S
OLIVIA         CLEAR     64  61  88 SW6       30.02S
PIPESTONE      CLEAR     66  63  88 S7        30.07S
WINDOM         CLEAR     68  63  83 SW6       30.07S
WORTHINGTON    CLEAR     69  64  84 MISG      30.08F
JACKSON        CLEAR     68  61  77 SW7       30.08F
TRACY          CLEAR     71  65  81 SW17      30.04S
SLAYTON        PTCLDY    66  63  89 S9        30.08S
$$
MNZ065>067-074>077-082>085-091>093-261200-
   South Central Minnesota

CITY           SKY/WX    TMP DP  RH WIND       PRES   REMARKS
MANKATO        CLEAR     66  61  82 S6        30.05F
NEW ULM        CLEAR     64  64 100 S5        30.04S
ST JAMES       CLEAR     61  59  94 CALM      30.06S
FAIRMONT       CLEAR     63  45  51 S5        30.06S
GLENCOE        CLEAR     67  66  96 CALM      30.04R
FARIBAULT      CLEAR     64  63  94 SE3       30.06F
OWATONNA       CLEAR     64  61  88 CALM      30.07F
WASECA         CLEAR     63  61  94 S5        30.08S
ALBERT LEA     CLEAR     64  64 100 CALM      30.08S
$$
MNZ078>079-086>088-094>096-261200-
   Southeast Minnesota

CITY           SKY/WX    TMP DP  RH WIND       PRES   REMARKS
ROCHESTER      CLEAR     63  62  97 S5        30.09S
RED WING       CLEAR     64  63  94 CALM      30.05S FOG
STANTON        CLEAR     66  63  88 CALM      30.04S
DODGE CENTER   CLEAR     63  61  94 SW5       30.08F
WINONA         PTCLDY    63  61  94 CALM      30.07S
AUSTIN         CLEAR     63  61  94 CALM      30.09S
PRESTON        CLEAR     65  61  87 CALM      30.09F
$$
ABBREVIATIONS USED IN REMARKS
   TC - TEMPERATURES IN CELSIUS
  WCI - WIND CHILL INDEX
   HX - HEAT INDEX
  VSB - VISIBILITY
$$




USA.gov is the U.S. government's official web portal to all federal, state and local government web resources and services.